Location: Unnamed
(51.5169°N, 0.1311°W)
Time: 03:10:15
(UTC+00:00)

Envisat - Visible Passes

Search period start: 06 March 2026 00:00
Search period end: 16 March 2026 00:00
Orbit: 761 x 763 km, 98.4° (Epoch: 5 March)

Date Brightness Start Highest point End Pass type
(mag) Time Alt. Az. Time Alt. Az. Time Alt. Az.
6 Mar 5.4 01:49:42 10° NE 01:51:27 18° NE 01:51:27 18° NE visible
6 Mar 3.9 03:28:13 10° N 03:31:35 38° NNW 03:31:35 38° NNW visible
6 Mar 5.0 05:09:33 10° NNW 05:11:01 11° NW 05:11:43 11° NW visible
7 Mar 5.9 01:13:19 10° ENE 01:13:20 10° ENE 01:13:20 10° ENE visible
7 Mar 4.2 02:50:19 10° NNE 02:53:27 38° NNE 02:53:27 38° NNE visible
7 Mar 4.5 04:30:11 10° N 04:33:36 20° NW 04:33:36 20° NW visible
8 Mar 4.9 02:12:42 10° NNE 02:15:21 27° NE 02:15:21 27° NE visible
8 Mar 3.9 03:51:47 10° N 03:55:28 33° NW 03:55:28 33° NW visible
9 Mar 5.5 01:35:35 10° NE 01:37:13 16° ENE 01:37:13 16° ENE visible
9 Mar 3.7 03:13:42 10° N 03:17:21 46° N 03:17:21 46° N visible
9 Mar 4.8 04:54:15 10° NNW 04:56:48 14° NW 04:57:29 14° WNW visible
10 Mar 4.2 02:35:53 10° NNE 02:39:14 39° NE 02:39:14 39° NE visible
10 Mar 4.2 04:15:26 10° N 04:19:22 25° NW 04:19:22 25° NW visible
11 Mar 5.0 01:58:25 10° NNE 02:01:06 24° ENE 02:01:06 24° ENE visible
11 Mar 3.6 03:37:11 10° N 03:41:14 42° NW 03:41:14 42° NW visible
12 Mar 5.6 01:21:39 10° NE 01:22:59 14° ENE 01:22:59 14° ENE visible
12 Mar 3.5 02:59:12 10° NNE 03:03:07 54° NNE 03:03:07 54° NNE visible
12 Mar 4.6 04:39:18 10° NNW 04:42:34 17° NW 04:43:15 17° WNW visible
13 Mar 4.3 02:21:30 10° NNE 02:24:59 37° NE 02:24:59 37° NE visible
13 Mar 3.9 04:00:46 10° N 04:05:07 31° WNW 04:05:07 31° WNW visible
14 Mar 5.1 01:44:14 10° NE 01:46:52 21° ENE 01:46:52 21° ENE visible
14 Mar 3.3 03:22:37 10° N 03:27:00 54° NW 03:27:00 54° NW visible
14 Mar 4.9 05:03:35 10° NNW 05:05:32 12° NW 05:07:08 11° WNW visible
15 Mar 5.8 01:08:11 10° ENE 01:08:44 11° ENE 01:08:44 11° ENE visible
15 Mar 3.5 02:44:44 10° NNE 02:48:52 56° NE 02:48:52 56° NE visible
15 Mar 4.3 04:24:30 10° N 04:28:17 22° WNW 04:29:00 21° WNW visible
